Missoula, MT

8:54 AM MDT on October 19, 2017 (GMT -0600)
Missoula International

Weather History for KMSO - May, 2013

Change the Weather History Date:

Thursday, May 2, 2013

  Actual Average Record
Temperature  
Mean Temperature 47 °F 50 °F  
Max Temperature 67 °F 63 °F 84 °F (1985)
Min Temperature 26 °F 36 °F 25 °F (1894)
Degree Days  
Heating Degree Days 18 15  
Month to date heating degree days 41 31  
Since 1 July heating degree days 6520 6794  
Cooling Degree Days 0 0  
Month to date cooling degree days 0 0  
Year to date cooling degree days 0 0  
Moisture  
Dew Point 24 °F    
Average Humidity 50    
Maximum Humidity 81    
Minimum Humidity 18    
Precipitation  
Precipitation 0.00 in 0.05 in 0.81 in (1980)
Month to date precipitation T 0.09  
Year to date precipitation 2.74 3.86  
Snow  
Snow 0.00 in - - ()
Month to date snowfall T  
Year to date snowfall 27.4  
Since 1 July snowfall 48.5  
Snow Depth 0.00 in    
Sea Level Pressure  
Sea Level Pressure 30.53 in    
Wind  
Wind Speed 2 mph (NNE)    
Max Wind Speed 13 mph    
Max Gust Speed 16 mph    
Visibility 10 miles    
Events      
T = Trace of Precipitation, MM = Missing Value Source: NWS Daily Summary

Daily Weather History Graph

Daily Weather History Graph

Search for Another Location

Airport or City:

Trip Planner

Search our weather history database for the weather conditions in past years. The results will help you decide how hot, cold, wet, or windy it might be!

Date:

Astronomy

May. 02, 2013 Rise Set
Actual Time 6:18 AM MDT 8:48 PM MDT
Civil Twilight 5:44 AM MDT 9:22 PM MDT
Nautical Twilight 5:02 AM MDT 10:05 PM MDT
Astronomical Twilight 4:13 AM MDT 10:55 PM MDT
Moon 2:36 AM MDT (5/2) 1:15 PM MDT (5/2)
Length of Visible Light 15h 37m
Length of Day
14h 29m
Waning Gibbous, 47% of the Moon is Illuminated
May 2
Waning Gibbous
May 9
New
May 17
First Quarter
May 24
Full
May 31
Last Quarter

Hourly Weather History & Observations

Time (MDT) Temp. Windchill Dew Point Humidity Pressure Visibility Wind Dir Wind Speed Gust Speed Precip Events Conditions
12:53 AM 35.1 °F - 24.1 °F 64% 30.68 in 10.0 mi Calm Calm - N/A   Clear
1:53 AM 32.0 °F - 24.1 °F 73% 30.69 in 10.0 mi Calm Calm - N/A   Clear
2:53 AM 30.9 °F - 24.1 °F 76% 30.69 in 10.0 mi Calm Calm - N/A   Clear
3:53 AM 30.0 °F 26.5 °F 23.0 °F 75% 30.69 in 10.0 mi NE 3.5 mph - N/A   Clear
4:53 AM 28.9 °F 25.2 °F 21.9 °F 75% 30.70 in 10.0 mi ESE 3.5 mph - N/A   Clear
5:53 AM 27.0 °F - 21.9 °F 81% 30.70 in 10.0 mi Calm Calm - N/A   Clear
6:53 AM 30.0 °F - 24.1 °F 79% 30.70 in 10.0 mi Calm Calm - N/A   Clear
7:53 AM 32.0 °F - 26.1 °F 79% 30.70 in 10.0 mi Calm Calm - N/A   Clear
8:53 AM 33.1 °F - 27.0 °F 78% 30.70 in 10.0 mi Calm Calm - N/A   Clear
9:53 AM 39.0 °F 36.8 °F 25.0 °F 57% 30.67 in 10.0 mi SE 3.5 mph - N/A   Clear
10:53 AM 45.0 °F - 25.0 °F 46% 30.64 in 10.0 mi Calm Calm - N/A   Clear
11:53 AM 48.9 °F - 24.1 °F 38% 30.60 in 10.0 mi Calm Calm - N/A   Clear
12:53 PM 54.0 °F - 24.1 °F 31% 30.55 in 10.0 mi Calm Calm - N/A   Clear
1:53 PM 57.9 °F - 21.0 °F 24% 30.50 in 10.0 mi SE 3.5 mph - N/A   Clear
2:53 PM 61.0 °F - 23.0 °F 23% 30.46 in 10.0 mi Calm Calm - N/A   Clear
3:53 PM 64.0 °F - 21.9 °F 20% 30.43 in 10.0 mi Calm Calm - N/A   Clear
4:53 PM 64.9 °F - 19.9 °F 18% 30.39 in 10.0 mi Calm Calm - N/A   Clear
5:53 PM 66.0 °F - 23.0 °F 20% 30.36 in 10.0 mi Variable 3.5 mph - N/A   Clear
6:53 PM 64.9 °F - 21.0 °F 19% 30.34 in 10.0 mi Calm Calm - N/A   Clear
7:53 PM 63.0 °F - 23.0 °F 22% 30.33 in 10.0 mi WNW 8.1 mph - N/A   Clear
8:53 PM 57.0 °F - 24.1 °F 28% 30.34 in 10.0 mi NNW 5.8 mph - N/A   Clear
9:53 PM 52.0 °F - 26.1 °F 37% 30.34 in 10.0 mi North 8.1 mph - N/A   Clear
10:53 PM 48.9 °F - 27.0 °F 43% 30.32 in 10.0 mi Calm Calm - N/A   Clear
11:53 PM 50.0 °F - 27.0 °F 41% 30.30 in 10.0 mi North 4.6 mph - N/A   Scattered Clouds